Hourly Data Report for September 01, 2004

TORONTO CITY
ONTARIO

43°40'00.000" N
79°24'00.000" W
112.50 m
6158355
71508
XTO

Download Data

Hourly Data (September 2004)
Hourly Data Report for September 1, 2004
TIME
LST
Temp Definition
°C
Dew Point Definition
°C
Rel Hum Definition
%
Precip. Amount Definition
mm

Wind Dir Definition
10's deg

Wind Spd Definition
km/h
Visibility Definition
km
Stn Press Definition
kPa
Hmdx Definition


Wind Chill Definition


Weather Definition


00:00 17.5 14.0 80   LegendMM LegendMM LegendMM 100.76     LegendNANA
01:00 16.8 13.0 78   LegendMM LegendMM LegendMM 100.77     LegendNANA
02:00 16.0 12.5 80   LegendMM LegendMM LegendMM 100.79     LegendNANA
03:00 15.9 12.4 80   LegendMM LegendMM LegendMM 100.76     LegendNANA
04:00 15.5 12.4 82   LegendMM LegendMM LegendMM 100.79     LegendNANA
05:00 15.3 12.6 84   LegendMM LegendMM LegendMM 100.84     LegendNANA
06:00 15.5 12.6 83   LegendMM LegendMM LegendMM 100.89     LegendNANA
07:00 16.2 12.9 81   LegendMM LegendMM LegendMM 100.92     LegendNANA
08:00 17.3 13.3 77   LegendMM LegendMM LegendMM 100.92     LegendNANA
09:00 18.7 13.7 73   LegendMM LegendMM LegendMM 100.96     LegendNANA
10:00 20.6 14.9 70   LegendMM LegendMM LegendMM 100.97 25   LegendNANA
11:00 21.8 13.8 60   LegendMM LegendMM LegendMM 100.94 25   LegendNANA
12:00 22.7 14.1 58   LegendMM LegendMM LegendMM 100.95 26   LegendNANA
13:00 23.2 12.5 51   LegendMM LegendMM LegendMM 100.95 26   LegendNANA
14:00 23.8 12.1 48   LegendMM LegendMM LegendMM 100.94 26   LegendNANA
15:00 23.4 11.5 47   LegendMM LegendMM LegendMM 100.91 25   LegendNANA
16:00 22.8 11.5 49   LegendMM LegendMM LegendMM 100.90 25   LegendNANA
17:00 22.6 12.7 54   LegendMM LegendMM LegendMM 100.89 25   LegendNANA
18:00 21.4 11.6 54   LegendMM LegendMM LegendMM 100.90     LegendNANA
19:00 20.3 10.7 54   LegendMM LegendMM LegendMM 100.92     LegendNANA
20:00 19.1 11.5 61   LegendMM LegendMM LegendMM 101.00     LegendNANA
21:00 18.3 11.6 65   LegendMM LegendMM LegendMM 101.02     LegendNANA
22:00 17.5 11.4 67   LegendMM LegendMM LegendMM 101.08     LegendNANA
23:00 17.4 11.3 67   LegendMM LegendMM LegendMM 101.10     LegendNANA

Notes on Data Quality.

Legend

  • E = Estimated
  • M = Missing
  • NA = Not Available*
  • [empty] = Indicates an unobserved value
Date modified: